sat.trackr.live / text

‹ back to catalog

STARLINK-32284

NORAD 61005 · 2024-158R

PAYLOAD ACTIVE UNKNOWN

§ Identity

Operator
Country
US
Launch date
2024-09-05
Launch site
AFETR
Launch vehicle
Mass (kg)
RCS (m²)

Purposes: comms

External: N2YO · Heavens-Above · Gunter

§ Orbital elements

Epoch: 2026-09-21T22:20:26.780928Z

Period
93.85 min
Inclination
53.1605°
Eccentricity
0.0001442
Mean motion
15.34408603 rev/d
Perigee alt
461.7 km
Apogee alt
463.7 km
Semi-major
6,840.8 km
B*
1.8275e-5
RAAN
230.6849°
Arg perigee
93.9270°
Mean anomaly
266.1898°
Rev number
11,567

§ Raw data

STARLINK-322841 61005U 24158R   26264.93086552  .00000241  00000+0  18275-4 0  99932 61005  53.1605 230.6849 0001442  93.9270 266.1898 15.34408603115671

JSON: /api/v1/satellites/61005 · /tle

For live sub-satellite position, see the globe view (requires WebGL).

§ Visibility from observer

Set your observer location to see the next 7 days of passes ≥ 10°. The values pass through the URL so the page stays shareable.

No JS? Fill the form by hand. The geolocation button needs JavaScript.